Regional Weather Roundup
Issued by NWS

Home | Current Version | Previous Version | Text Only | Print | Product List | Glossary On
Versions: 1 2 3 4 5 6 7 8 9 10 11 12 13 14 15 16 17 18 19 20 21 22 23 24 25 26 27
000
ASUS44 KBMX 192010
RWRAL

ALABAMA REGIONAL WEATHER ROUNDUP
NATIONAL WEATHER SERVICE BIRMINGHAM AL
300 PM CDT SAT APR 19 2014

NOTE: "FAIR" INDICATES FEW OR NO CLOUDS BELOW 12,000 FEET
WITH NO SIGNIFICANT WEATHER AND/OR OBSTRUCTIONS TO VISIBILITY.

THE REMARK "TC" DENOTES TEMPERATURE IN DEGREES CELSIUS.

ALZ001>011-014-016>018-020-192100-
NORTH ALABAMA

CITY           SKY/WX    TMP DP  RH WIND       PRES   REMARKS
MUSCLE SHOALS  SUNNY     77  41  27 NE7       30.13F
HUNTSVILLE     MOSUNNY   77  39  25 N14G22    30.11F
DECATUR        MOSUNNY   77  39  25 NE17G24   30.12F
HALEYVILLE     FAIR      76  42  29 NE8G16    30.15F
GADSDEN        NOT AVBL
$$

ALZ012-013-022-023-030>036-040>044-192100-
WEST CENTRAL ALABAMA

CITY           SKY/WX    TMP DP  RH WIND       PRES   REMARKS
TUSCALOOSA     SUNNY     80  41  24 N15G25    30.08F
$$

ALZ015-024>027-033>036-040>044-192100-
CENTRAL ALABAMA

CITY           SKY/WX    TMP DP  RH WIND       PRES   REMARKS
BIRMINGHAM     MOSUNNY   76  43  30 NE12G18   30.11F
MONTGOMERY     PTSUNNY   72  55  55 N16G25    30.06F
SHELBY CO ARPT MOSUNNY   75  48  38 NE6       30.08F
MAXWELL AFB    MOSUNNY   77  61  57 N18G26    30.05F
GREENVILLE     PTSUNNY   73  53  49 N13G26    30.04F
$$

ALZ019-021-028-029-037-038-045>048-192100-
EAST CENTRAL ALABAMA

CITY           SKY/WX    TMP DP  RH WIND       PRES   REMARKS
ANNISTON       CLOUDY    70  49  47 N7        30.10F
ALEXANDER CITY PTSUNNY   71  53  53 N13G21    30.08F
AUBURN         CLOUDY    63  54  72 NE13G21   30.08F
$$

ALZ051>064-192100-
SOUTHWEST ALABAMA

CITY           SKY/WX    TMP DP  RH WIND       PRES   REMARKS
MOBILE         SUNNY     77  49  37 N18G25    30.06F
BROOKLEY FIELD SUNNY     79  49  34 N15G25    30.05F
EVERGREEN      MOSUNNY   77  51  40 N13G22    30.05F
$$

ALZ049-050-065>069-192100-
SOUTHEAST ALABAMA

CITY           SKY/WX    TMP DP  RH WIND       PRES   REMARKS
DOTHAN         CLOUDY    63  54  72 N10       30.05S
OZARK          CLOUDY    63  54  72 N10       30.03S
TROY           CLOUDY    66  55  67 NE9       30.05F
EUFAULA        CLOUDY    63  53  70 N8        30.03S
$$



USA.gov is the U.S. government's official web portal to all federal, state and local government web resources and services.